Regional Weather Roundup
Issued by NWS

Home | Current Version | Previous Version | Text Only | Print | Product List | Glossary Off
Versions: 1 2 3 4 5 6 7 8 9 10 11 12 13 14 15 16 17 18 19 20 21 22 23 24 25 26 27 28 29 30 31 32 33 34 35 36 37 38 39 40 41 42 43 44 45 46 47 48 49 50

000
ASUS43 KMPX 310101
RWRMN
WEATHER ROUNDUP FOR MINNESOTA
NATIONAL WEATHER SERVICE TWIN CITIES/CHANHASSEN MN
800 PM CDT THU OCT 30 2014


NOTE: "FAIR" INDICATES FEW OR NO CLOUDS BELOW 12,000 FEET WITH NO
SIGNIFICANT WEATHER AND/OR OBSTRUCTIONS TO VISIBILITY. N/A MEANS
CURRENT SKY AND/OR WEATHER CONDITIONS ARE NOT AVAILABLE.

MNZ060>063-068>070-310200-
   Twin Cities Metro

CITY           SKY/WX    TMP DP  RH WIND       PRES   REMARKS
TWIN CITIES    CLOUDY    42  28  57 NW22G31   30.23R
ST PAUL        CLOUDY    42  30  62 N18       30.24R
CRYSTAL        CLOUDY    43  26  51 N21G29    30.24R
LAKEVILLE      CLOUDY    41  28  60 NW14G25   30.22R
EDEN PRAIRIE   CLOUDY    42  26  53 N20G28    30.23R
SOUTH ST PAUL  CLOUDY    44  30  59 N17G24    30.22R
LAKE ELMO      CLOUDY    41  32  70 N12G17    30.23R
$$
MNZ001>005-007-008-013>017-022>024-027-028-310200-
   Northwest Minnesota

CITY           SKY/WX    TMP DP  RH WIND       PRES   REMARKS
BEMIDJI        PTCLDY    29  15  55 N13G20    30.38R WCI  19
HALLOCK        CLEAR     28  19  69 N12       30.51R WCI  18
ROSEAU         CLEAR     28  19  69 N9        30.46R WCI  20
WARROAD        CLEAR     30  18  59 N12G17    30.45R WCI  21
THIEF RVR FALL CLEAR     28  19  69 N10       30.46R WCI  19
CROOKSTON      CLEAR     28  21  74 N12       30.49R WCI  18
FOSSTON        CLEAR     27  21  80 N13       30.44R WCI  16
DETROIT LAKES  CLEAR     32  25  74 N15G23    30.41R WCI  22
MOORHEAD       CLEAR     32  25  74 N14       30.46R WCI  22
PARK RAPIDS    MOCLDY    32  18  56 N20G26    30.36R WCI  20
MAHNOMEN       FAIR      30  22  70 N18G31    30.41R WCI  18
$$
MNZ006-009>011-018-025>026-310200-
   North Central Minnesota

CITY           SKY/WX    TMP DP  RH WIND       PRES   REMARKS
BAUDETTE       CLOUDY    32  18  56 N22G32    30.40R WCI  19
FLAG ISLAND    PTCLDY    32  21  64 N24G30    30.44R WCI  19
INTL FALLS     PTCLDY    28  19  69 N15G31    30.35R WCI  16
WASKISH        CLEAR     28  18  64 N12G21    30.40R WCI  18
BIG FORK       PTCLDY    28  18  64 NW13G18   30.35R WCI  18
LONGVILLE      PTCLDY    32  14  47 N13G26    30.33R WCI  22
GRAND RAPIDS   PTCLDY    28  14  54 N22G29    30.30R WCI  15
CRANE LAKE     MOCLDY    27  21  80 N13G23    30.33R WCI  16
ORR            PTCLDY    28  19  69 NW10G17   30.28R WCI  19
COOK           PTCLDY    28  19  69 N10G20    30.29R WCI  19
WALKER         MOCLDY    31  15  50 N13       30.35R WCI  21
$$
MNZ012-019>021-037-310200-
   Northeast Minnesota

CITY           SKY/WX    TMP DP  RH WIND       PRES   REMARKS
DULUTH         CLOUDY    31  20  63 N20G32    30.21R WCI  19
ELY            CLOUDY    27  23  86 NW8G23    30.23R WCI  18
HIBBING        CLEAR     29  17  61 N22G38    30.28R WCI  15
EVELETH        LGT SNOW  30  21  69 NW20G38   30.27R WCI  18
DULUTH HARBOR  MOCLDY    36  27  69 NW26G40   30.25R
TWO HARBORS    MOCLDY    34  27  75 NW10G24   30.18R WCI  26
SILVER BAY     LGT SNOW  32  27  80 NW15G28   30.16R WCI  22
GRAND MARAIS     N/A     32  29  88 N9G22     30.14R WCI  24
$$
MNZ029>031-032-039>041-046>048-054>057-064-310200-
   West Central Minnesota

CITY           SKY/WX    TMP DP  RH WIND       PRES   REMARKS
FERGUS FALLS   CLEAR     30  19  64 N14       30.44R WCI  20
WHEATON        MOCLDY    30  21  69 NW14      30.46R WCI  20
MORRIS         CLOUDY    34  25  69 N24G30    30.39R WCI  21
ALEXANDRIA     PTCLDY    33  20  58 N20G29    30.37R WCI  21
ELBOW LAKE     CLOUDY    32  21  64 N17G24    30.40R WCI  21
WADENA         CLEAR     30  18  59 N14G20    30.36R WCI  20
GLENWOOD       PTCLDY    34  19  55 N21G31    30.36R WCI  22
APPLETON       CLOUDY    36  25  64 N23G31    30.40R
BENSON         CLOUDY    36  27  69 N20G26    30.37R
ORTONVILLE     CLOUDY    34  21  60 N20G30    30.43R WCI  22
MADISON        CLOUDY    37  27  65 N31G41    30.41R
WILLMAR        CLOUDY    39  25  56 N18G28    30.35R
$$
MNZ033>034-036-042>043-049>051-058-059-310200-
   Central Minnesota

CITY           SKY/WX    TMP DP  RH WIND       PRES   REMARKS
ST CLOUD       CLOUDY    40  22  48 N18G32    30.28R
SAUK CENTRE    FAIR      32  20  60 NW18G24   30.35R WCI  21
PAYNESVILLE    CLOUDY    34  23  62 W21G31    30.33R WCI  23
AITKIN         MOCLDY    36  14  41 N22G32    30.30R
PINE RIVER     PTCLDY    34  18  51 N16G26    30.36R WCI  23
BRAINERD       PTCLDY    33  14  45 N29G40    30.32R WCI  19
STAPLES        PTCLDY    30  16  55 N16G24    30.34R WCI  19
LONG PRAIRIE   FAIR      32  21  64 NW15G22   30.34R WCI  22
LITTLE FALLS   PTCLDY    34  18  51 NW13G21   30.32R WCI  25
LITCHFIELD     CLOUDY    39  27  60 N17G28    30.31R
BUFFALO        CLOUDY    40  24  53 NW13G20   30.28R
MAPLE LAKE     CLOUDY    40  29  63 NW14G23   30.29R
$$
MNZ037-044-045-052-053-310200-
   East Central Minnesota

CITY           SKY/WX    TMP DP  RH WIND       PRES   REMARKS
PRINCETON      CLOUDY    41  25  52 NW20G25   30.27R
MORA           CLOUDY    36  21  55 N15G32    30.28R
CAMBRIDGE      CLOUDY    43  28  56 NW17G23   30.24R
RUSH CITY      CLOUDY    37  27  67 N15G30    30.25R
MOOSE LAKE     CLOUDY    32  21  64 N17G24    30.24R WCI  21
HINCKLEY       MOCLDY    36  27  69 NW15G26   30.25R
CLOQUET        FAIR      32  14  47 NW25G38   30.24R WCI  19
MCGREGOR       PTCLDY    32  19  59 N20G31    30.29R WCI  20
$$
MNZ071>073-080-081-089-090-097-098-310200-
   Southwest Minnesota

CITY           SKY/WX    TMP DP  RH WIND       PRES   REMARKS
MONTEVIDEO     CLOUDY    36  28  75 N18G29    30.38R
GRANITE FALLS  CLOUDY    36  27  72 NW15G23   30.38R
CANBY          CLOUDY    35  29  79 N14G22    30.41R WCI  26
MARSHALL       CLOUDY    36  23  60 N28G39    30.36R
REDWOOD FALLS  CLOUDY    39  31  72 NW17G29   30.32R
OLIVIA         CLOUDY    39  28  65 N24       30.32R
PIPESTONE      CLOUDY    36  28  75 N16G23    30.34R
WINDOM         CLOUDY    39  30  70 NW23G32   30.30R
WORTHINGTON    CLOUDY    37  28  70 N25G33    30.32R
JACKSON        CLOUDY    41  30  65 N18G39    30.28R
TRACY          CLOUDY    36  29  76 N28G37    30.35R
SLAYTON        CLOUDY    35  30  82 N32G38    30.33R WCI  21
$$
MNZ065>067-074>077-082>085-091>093-310200-
   South Central Minnesota

CITY           SKY/WX    TMP DP  RH WIND       PRES   REMARKS
MANKATO        CLOUDY    43  28  56 NW20G29   30.25R
NEW ULM        PTCLDY    41  30  65 NW22G29   30.27R
ST JAMES       CLOUDY    43  30  61 NW17G25   30.29R
FAIRMONT       CLOUDY    45  30  57 NW22G36   30.25R
GLENCOE        CLOUDY    42  30  62 NW17G26   30.27R
FARIBAULT      CLOUDY    43  34  70 NW14      30.22R
OWATONNA       CLEAR     45  32  61 NW18G28   30.21R
WASECA         CLOUDY    41  32  70 NW16      30.24R
ALBERT LEA     CLOUDY    45  36  70 NW20G25   30.19R
$$
MNZ078>079-086>088-094>096-310200-
   Southeast Minnesota

CITY           SKY/WX    TMP DP  RH WIND       PRES   REMARKS
ROCHESTER      CLOUDY    44  36  73 N13       30.16R
RED WING       CLOUDY    45  28  53 NW13G21   30.19R
STANTON        CLOUDY    44  32  62 N21       30.20R
DODGE CENTER   CLOUDY    45  37  76 N22G31    30.18R
WINONA         CLOUDY    46  36  66 NW18G25   30.14R
AUSTIN         CLOUDY    45  36  70 NW18G26   30.17R
PRESTON        CLOUDY    43  36  77 N10       30.14R
$$
ABBREVIATIONS USED IN REMARKS
   TC - TEMPERATURES IN CELSIUS
  WCI - WIND CHILL INDEX
   HX - HEAT INDEX
  VSB - VISIBILITY
$$



USA.gov is the U.S. government's official web portal to all federal, state and local government web resources and services.